Weather History for Holzdorf, Germany

Change the Weather History Date:

Saturday, December 8, 2012

  Actual Average (EDDP) Record (EDDP)
Temperature  
Mean Temperature 16 °F -  
Max Temperature 26 °F 40 °F 57 °F (2006)
Min Temperature 5 °F 31 °F 10 °F (2012)
Degree Days  
Heating Degree Days 50    
Moisture  
Dew Point 14 °F    
Average Humidity 86    
Maximum Humidity 93    
Minimum Humidity 69    
Precipitation  
Precipitation 0.00 in - - ()
Sea Level Pressure  
Sea Level Pressure 30.10 in    
Wind  
Wind Speed 3 mph ()    
Max Wind Speed 7 mph    
Max Gust Speed -    
Visibility 5.0 miles    
Events Snow    
Averages and records for this station are not official NWS values.
T = Trace of Precipitation, MM = Missing Value Source: Averaged Metar Reports

Daily Weather History Graph

Daily Weather History Graph

Search for Another Location

Airport:

Trip Planner

Search our weather history database for the weather conditions in past years. The results will help you decide how hot, cold, wet, or windy it might be!

Date:

Astronomy

Dec. 08, 2012 Rise Set
Actual Time 8:01 AM CET 3:57 PM CET
Civil Twilight 7:21 AM CET 4:37 PM CET
Nautical Twilight 6:38 AM CET 5:20 PM CET
Astronomical Twilight 5:57 AM CET 6:01 PM CET
Moon 1:32 AM CET (12/8) 12:48 PM CET (12/8)
Length of Visible Light 9h 16m
Length of Day
7h 56m
Waning Crescent, 31% of the Moon is Illuminated
Dec 8
Waning Crescent
Dec 13
New
Dec 20
First Quarter
Dec 28
Full
Jan 5
Last Quarter

Hourly Weather History & Observations

Time (CET) Temp. Windchill Dew Point Humidity Pressure Visibility Wind Dir Wind Speed Gust Speed Precip Events Conditions
12:20 AM 12.2 °F - 10.4 °F 92% 29.95 in 6.2 mi East 2.3 mph - N/A   Unknown
1:20 AM 12.2 °F - 10.4 °F 92% 29.98 in 6.2 mi ESE 2.3 mph - N/A   Unknown
2:20 AM 10.4 °F - 8.6 °F 92% 29.98 in 6.2 mi East 2.3 mph - N/A   Unknown
3:20 AM 8.6 °F - 6.8 °F 92% 29.98 in 6.2 mi NNE 1.2 mph - N/A   Unknown
4:20 AM 8.6 °F - 5.0 °F 85% 30.01 in 6.2 mi North 1.2 mph - N/A   Unknown
5:20 AM 6.8 °F - 3.2 °F 85% 30.01 in 6.2 mi East 2.3 mph - N/A   Unknown
6:20 AM 6.8 °F - 3.2 °F 85% 30.04 in 6.2 mi East 1.2 mph - N/A   Unknown
7:20 AM 5.0 °F - 3.2 °F 92% 30.06 in 6.2 mi SE 1.2 mph - N/A   Unknown
8:20 AM 5.0 °F - 1.4 °F 85% 30.06 in 5.6 mi ESE 1.2 mph - N/A   Scattered Clouds
9:20 AM 8.6 °F - 6.8 °F 92% 30.09 in 5.6 mi Variable 1.2 mph - N/A   Scattered Clouds
10:20 AM 14.0 °F - 10.4 °F 86% 30.12 in 5.6 mi West 2.3 mph - N/A   Scattered Clouds
11:20 AM 21.2 °F 14.9 °F 15.8 °F 80% 30.12 in 6.2 mi WSW 4.6 mph - N/A   Mostly Cloudy
12:20 PM 23.0 °F 15.8 °F 17.6 °F 80% 30.12 in 6.2 mi SW 5.8 mph - N/A   Mostly Cloudy
1:20 PM 26.6 °F 21.2 °F 17.6 °F 69% 30.12 in 5.6 mi West 4.6 mph - N/A   Mostly Cloudy
2:20 PM 26.6 °F 19.1 °F 17.6 °F 69% 30.12 in 6.2 mi SW 6.9 mph - N/A   Mostly Cloudy
3:20 PM 24.8 °F 17.9 °F 17.6 °F 74% 30.15 in 5.6 mi SW 5.8 mph - N/A   Mostly Cloudy
4:20 PM 23.0 °F 14.7 °F 17.6 °F 80% 30.12 in 3.7 mi SW 6.9 mph - N/A   Mostly Cloudy
5:20 PM 23.0 °F 15.8 °F 19.4 °F 86% 30.15 in 4.3 mi WSW 5.8 mph - N/A   Mostly Cloudy
6:20 PM 23.0 °F 17.0 °F 19.4 °F 86% 30.18 in 3.7 mi West 4.6 mph - N/A   Mostly Cloudy
6:32 PM 23.0 °F 15.8 °F 21.2 °F 93% 30.18 in - WNW 5.8 mph - N/A Snow Light Snow
7:20 PM 24.8 °F 20.5 °F 21.2 °F 86% 30.18 in 2.5 mi West 3.5 mph - N/A   Mostly Cloudy
8:20 PM 24.8 °F 16.9 °F 23.0 °F 93% 30.18 in 2.5 mi West 6.9 mph - N/A Snow Light Snow
9:20 PM 24.8 °F 20.5 °F 23.0 °F 93% 30.18 in 2.8 mi West 3.5 mph - N/A Snow Light Snow
10:20 PM 24.8 °F - 23.0 °F 93% 30.18 in 2.8 mi SW 2.3 mph - N/A   Overcast
11:20 PM 24.8 °F 20.5 °F 23.0 °F 93% 30.18 in 2.2 mi West 3.5 mph - N/A   Overcast